This is the latest recevied weather packets stored in our database for station/object KE8WAY. If no packets are shown the sender has not sent any weather packets the latest 10 day(s).
| Time | Temp. | Humidity | Pressure | Rain* | Wind** | Luminosity | Snow |
|---|---|---|---|---|---|---|---|
| 1777576126 | 11.67° C | 43% | 1013.6 hPa | 0 mm | - | 787 W/m² | - |
| 1777575821 | 12.22° C | 45% | 1013.9 hPa | 0 mm | - | 280 W/m² | - |
| 1777575518 | 12.22° C | 43% | 1013.9 hPa | 0 mm | - | 319 W/m² | - |
| 1777575214 | 12.22° C | 44% | 1013.8 hPa | 0 mm | - | 290 W/m² | - |
| 1777574910 | 12.78° C | 42% | 1013.9 hPa | 0 mm | - | 280 W/m² | - |
| 1777574607 | 12.78° C | 41% | 1013.9 hPa | 0 mm | - | 845 W/m² | - |
| 1777574302 | 12.22° C | 41% | 1014.1 hPa | 0 mm | - | 869 W/m² | - |
| 1777573993 | 12.22° C | 47% | 1013.7 hPa | 0 mm | - | 284 W/m² | - |
| 1777573687 | 11.67° C | 44% | 1013.9 hPa | 0 mm | - | 239 W/m² | - |
| 1777573384 | 12.22° C | 43% | 1013.9 hPa | 0 mm | - | 312 W/m² | - |
| 1777573080 | 12.22° C | 42% | 1013.9 hPa | 0 mm | - | 799 W/m² | - |
| 1777572776 | 11.67° C | 47% | 1013.9 hPa | 0 mm | - | 218 W/m² | - |
| 1777572470 | 11.67° C | 45% | 1014 hPa | 0 mm | - | 953 W/m² | - |
| 1777572167 | 11.11° C | 43% | 1014.1 hPa | 0 mm | - | 237 W/m² | - |
| 1777571862 | 11.67° C | 46% | 1014.2 hPa | 0 mm | - | 233 W/m² | - |
| 1777571558 | 11.11° C | 43% | 1014.1 hPa | 0 mm | - | 242 W/m² | - |
| 1777571255 | 11.67° C | 42% | 1014.1 hPa | 0 mm | - | 201 W/m² | - |
| 1777570951 | 11.67° C | 48% | 1014.1 hPa | 0 mm | - | 314 W/m² | - |
| 1777570647 | 11.11° C | 44% | 1014.1 hPa | 0 mm | - | 327 W/m² | - |
| 1777570344 | 11.67° C | 47% | 1014 hPa | 0 mm | - | 260 W/m² | - |
| 1777570040 | 11.67° C | 49% | 1014.2 hPa | 0 mm | - | 867 W/m² | - |
| 1777569735 | 12.22° C | 45% | 1014.1 hPa | 0 mm | - | 642 W/m² | - |
| 1777569431 | 12.22° C | 49% | 1014.3 hPa | 0 mm | - | 336 W/m² | - |
| 1777569129 | 11.67° C | 48% | 1014.2 hPa | 0 mm | - | 796 W/m² | - |
| 1777568825 | 11.67° C | 51% | 1014.3 hPa | 0 mm | - | 780 W/m² | - |
* Rain latest hour (hover to see other rain measurements)
** Current wind speed in m/s (hover to see current wind gust speed)